[[{"header":{"parameterUnit":"m.s-1","parameterCategory":1,"la1":30.2991,"la2":30.254,"lo1":-89.0895,"lo2":-89.0444,"dy":0.0017,"dx":0.0017,"nx":28,"ny":28,"refTime":"2025-05-01T09:00:00:Z","depth":0,"parameterNumber":2,"parameterNumberName":"U-component_of_WINDS"},"data":[0,0,0,0,0,0,0,0,0,0,0,0,0,0,0,0,0,0,0,0,0,0,0,0,0,0,0,0,0,0,0,0,0,0,0,0,0,0,0,0,0,0,0,0,0,0,0,0,0,0,0,0,0,0,0,0,0,0,-0.6921,-0.6924,0,-0.7157,-0.716,-0.7162,-0.7269,-0.7269,-0.7269,-0.7268,-0.7519,-0.7525,-0.7532,0,0,0,0,0,0,0,0,0,0,0,0,0,-0.6572,-0.6578,-0.6921,-0.6924,-0.6927,-0.7156,-0.716,-0.7163,-0.7269,-0.7269,-0.7269,-0.7268,-0.7516,-0.7524,-0.7533,0,0,0,0,0,0,0,0,0,0,0,0,0,-0.6757,-0.658,-0.692,-0.7007,-0.7017,-0.7156,-0.716,-0.7164,-0.7269,-0.7269,-0.7268,-0.7268,-0.7514,-0.7524,-0.7534,-0.7606,0,0,-0.7566,-0.757,0,0,0,0,0,0,0,0,-0.6747,-0.677,-0.6992,-0.7002,-0.7013,-0.7183,-0.7128,-0.7312,-0.7269,-0.7174,-0.7268,-0.7268,-0.7408,-0.7427,-0.7472,-0.7618,-0.7629,-0.7567,-0.7573,-0.7577,-0.758,0,0,0,0,0,0,0,-0.6734,-0.6761,-0.7015,-0.6995,-0.7008,-0.7038,-0.7063,-0.7164,-0.7291,-0.7182,-0.7191,-0.7216,-0.7414,-0.7462,-0.7479,-0.7632,-0.7566,-0.7575,-0.7582,-0.7586,-0.7851,-0.7852,0,0,0,0,0,0,-0.6705,-0.6749,-0.7007,-0.7022,-0.6876,-0.7044,-0.7073,-0.7129,-0.729,-0.7314,-0.7217,-0.7221,-0.7445,-0.7467,-0.7488,-0.7584,-0.7577,-0.7587,-0.7593,-0.785,-0.7851,-0.7852,0,0,0,0,0,0,-0.6697,-0.6727,-0.6998,-0.6888,-0.6924,-0.705,-0.7113,-0.7134,-0.7182,-0.7316,-0.734,-0.7242,-0.7445,-0.7474,-0.7576,-0.7594,-0.7592,-0.7601,-0.7849,-0.785,-0.7851,-0.7776,0,0,0,0,0,0,-0.6687,-0.6724,-0.675,-0.6887,-0.693,-0.7078,-0.7114,-0.7139,-0.7199,-0.7206,-0.7346,-0.7369,-0.7447,-0.756,-0.7586,-0.7609,-0.7609,-0.7848,-0.785,-0.7851,-0.7777,-0.7774,-0.7772,0,0,0,0,0,-0.6674,-0.6721,-0.6751,-0.6782,-0.6965,-0.7079,-0.7104,-0.719,-0.72,-0.7229,-0.7315,-0.7364,-0.7588,-0.7569,-0.76,-0.7626,-0.7847,-0.7849,-0.7851,-0.7779,-0.7775,-0.7772,0,0,0,0,0,0,-0.6587,-0.6741,-0.6776,-0.6868,-0.6959,-0.7097,-0.7136,-0.7183,-0.7276,-0.728,-0.7386,-0.7417,-0.751,-0.7579,-0.7555,-0.7705,-0.7722,-0.773,-0.7657,-0.7654,-0.7652,-0.7634,-0.7618,0,0,0,0,0,-0.6577,-0.6654,-0.6786,-0.6855,-0.6899,-0.7009,-0.7062,-0.7121,-0.7221,-0.7261,-0.7354,-0.7452,-0.7544,-0.7603,-0.7696,-0.7788,-0.7821,-0.7821,-0.7818,-0.7815,-0.7821,-0.7877,-0.7879,-0.7858,-0.7858,-0.7858,0,0,-0.6561,-0.6655,-0.6697,-0.684,-0.6918,-0.6997,-0.7041,-0.7124,-0.7185,-0.7275,-0.7376,-0.7448,-0.7564,-0.7661,-0.7709,-0.7722,-0.7834,-0.7817,-0.7814,-0.7822,-0.7879,-0.788,-0.7882,-0.7859,-0.7859,-0.7859,0,0,-0.6571,-0.6649,-0.6715,-0.6791,-0.6907,-0.698,-0.6995,-0.7126,-0.7176,-0.7279,-0.7348,-0.7424,-0.758,-0.766,-0.7722,-0.7762,-0.7811,-0.7789,-0.7775,-0.7828,-0.783,-0.7832,-0.7847,-0.7851,-0.7795,-0.7794,-0.7794,0,-0.6537,-0.6656,-0.6744,-0.6822,-0.6884,-0.6965,-0.7035,-0.7106,-0.7247,-0.7289,-0.73,-0.7498,-0.7582,-0.77,-0.7709,-0.7756,-0.778,-0.7774,-0.7822,-0.7825,-0.7828,-0.7844,-0.785,-0.7791,-0.7791,-0.7792,-0.7792,0,-0.6609,-0.6691,-0.6731,-0.6862,-0.6928,-0.7002,-0.7103,-0.7161,-0.7213,-0.7286,-0.7391,-0.7494,-0.7609,-0.7641,-0.7695,-0.7768,-0.7772,-0.78,-0.782,-0.7825,-0.7842,-0.7849,-0.7786,-0.7787,-0.7788,-0.7789,0,0,-0.6572,-0.6748,-0.6762,-0.6822,-0.6956,-0.7023,-0.7101,-0.721,-0.7258,-0.7353,-0.7423,-0.7553,-0.7581,-0.765,-0.7714,-0.7759,-0.7786,-0.7784,-0.7788,-0.7782,-0.7874,-0.7852,-0.7858,-0.7819,-0.7821,-0.7822,-0.7865,0,-0.6601,-0.6741,-0.6822,-0.6931,-0.7009,-0.7087,-0.7156,-0.7246,-0.7316,-0.7396,-0.7475,-0.7565,-0.7594,-0.7637,-0.7686,-0.7772,-0.7806,-0.777,-0.7888,-0.7891,-0.7857,-0.7867,-0.7844,-0.7879,-0.7872,-0.7873,-0.7874,0,-0.6654,-0.6744,-0.6858,-0.6983,-0.7019,-0.7079,-0.7186,-0.7259,-0.7365,-0.7413,-0.749,-0.7553,-0.7641,-0.7653,-0.7778,-0.7751,-0.7805,-0.7854,-0.7858,-0.7874,-0.7884,-0.7884,-0.7893,-0.7898,-0.7885,-0.7885,-0.7884,0,-0.6617,-0.6767,-0.6855,-0.6904,-0.7051,-0.7092,-0.7155,-0.726,-0.7321,-0.7416,-0.7457,-0.7561,-0.7619,-0.77,-0.7791,-0.7791,-0.7908,-0.7926,-0.7953,-0.795,-0.7975,-0.7972,-0.7994,-0.8006,-0.8006,-0.8006,-0.8006,0,-0.6642,-0.6709,-0.684,-0.6894,-0.6973,-0.7067,-0.7143,-0.7214,-0.7306,-0.7378,-0.7453,-0.752,-0.7635,-0.7716,-0.7788,-0.7882,-0.7907,-0.7951,-0.7969,-0.7945,-0.7939,-0.7982,-0.7982,-0.8008,-0.8007,-0.8007,-0.8007,0,-0.6614,-0.6703,-0.6805,-0.6935,-0.6969,-0.7022,-0.7135,-0.7192,-0.7265,-0.7356,-0.7382,-0.7499,-0.7599,-0.7696,-0.7832,-0.788,-0.7973,-0.7997,-0.7936,-0.7947,-0.7968,-0.7965,-0.8019,-0.8032,-0.8033,-0.8033,-0.8033,0,-0.6624,-0.6678,-0.6812,-0.6864,-0.6925,-0.7008,-0.7069,-0.7164,-0.7226,-0.735,-0.7393,-0.7498,-0.7587,-0.7743,-0.7842,-0.7946,-0.7974,-0.7986,-0.7991,-0.7964,-0.7976,-0.7972,-0.7979,-0.7983,-0.7983,-0.7982,-0.7982,0,-0.6634,-0.6675,-0.6759,-0.6859,-0.6929,-0.7013,-0.71,-0.7139,-0.7252,-0.7318,-0.7419,-0.7487,-0.7624,-0.7728,-0.7843,-0.7913,-0.7967,-0.7979,-0.7991,-0.7967,-0.793,-0.7952,-0.793,-0.7978,-0.7979,-0.7979,-0.7979,-0.7979,-0.6627,-0.6678,-0.678,-0.6872,-0.6946,-0.7026,-0.7086,-0.7165,-0.725,-0.7367,-0.7418,-0.7521,-0.7627,-0.7787,-0.7855,-0.7939,-0.7953,-0.797,-0.7974,-0.7977,-0.7972,-0.7915,-0.7961,-0.7961,-0.7961,-0.7961,-0.7962,0,-0.6642,-0.6711,-0.6794,-0.6911,-0.6983,-0.7024,-0.7123,-0.7182,-0.727,-0.7362,-0.7447,-0.7564,-0.7665,-0.7771,-0.7879,-0.7926,-0.7954,-0.7951,-0.795,-0.7965,-0.7953,-0.7933,-0.7927,-0.7927,-0.7927,-0.7927,-0.7927,-0.7927,-0.6658,-0.6747,-0.68,-0.6927,-0.6998,-0.7096,-0.7149,-0.7223,-0.7297,-0.7423,-0.7506,-0.7573,-0.7673,-0.7788,-0.7884,-0.7913,-0.795,-0.794,-0.7976,-0.7964,-0.7966,-0.7968,-0.7949,-0.7947,-0.7947,-0.7982,-0.7982,-0.7982]},{"header":{"parameterUnit":"m.s-1","parameterCategory":1,"la1":30.2991,"la2":30.254,"lo1":-89.0895,"lo2":-89.0444,"dy":0.0017,"dx":0.0017,"nx":28,"ny":28,"refTime":"2025-05-01T09:00:00:Z","depth":0,"parameterNumber":3,"parameterNumberName":"V-component_of_WINDS"},"data":[0,0,0,0,0,0,0,0,0,0,0,0,0,0,0,0,0,0,0,0,0,0,0,0,0,0,0,0,0,0,0,0,0,0,0,0,0,0,0,0,0,0,0,0,0,0,0,0,0,0,0,0,0,0,0,0,0,0,6.3018,6.3019,0,6.3113,6.3114,6.3115,6.3099,6.3098,6.3096,6.3095,6.3181,6.3185,6.3188,0,0,0,0,0,0,0,0,0,0,0,0,0,6.2812,6.2815,6.3018,6.3019,6.3021,6.3113,6.3114,6.3116,6.31,6.3098,6.3096,6.3094,6.318,6.3184,6.3189,0,0,0,0,0,0,0,0,0,0,0,0,0,6.2903,6.2817,6.3018,6.3024,6.3026,6.3113,6.3114,6.3116,6.31,6.3098,6.3095,6.3093,6.3178,6.3184,6.3189,6.3273,0,0,6.3207,6.3209,0,0,0,0,0,0,0,0,6.2898,6.2911,6.3022,6.3024,6.3026,6.3092,6.3073,6.3168,6.3101,6.3071,6.3095,6.3092,6.3153,6.316,6.3183,6.3277,6.3281,6.3207,6.3211,6.3213,6.3215,0,0,0,0,0,0,0,6.2892,6.2906,6.3055,6.3023,6.3026,6.3018,6.3029,6.3091,6.3124,6.3074,6.3073,6.3085,6.3153,6.3178,6.3185,6.3282,6.3207,6.3212,6.3216,6.3218,6.3448,6.345,0,0,0,0,0,0,6.2885,6.2901,6.3052,6.3058,6.2955,6.3024,6.3036,6.3073,6.3124,6.3129,6.3087,6.3084,6.3169,6.3178,6.3188,6.3288,6.3213,6.3219,6.3222,6.3445,6.3448,6.3451,0,0,0,0,0,0,6.2881,6.2899,6.3048,6.298,6.2998,6.303,6.3072,6.3076,6.3101,6.3134,6.3138,6.3107,6.3168,6.318,6.3253,6.3291,6.3221,6.3226,6.3442,6.3446,6.345,6.349,0,0,0,0,0,0,6.2875,6.2897,6.2932,6.2981,6.3002,6.3115,6.3075,6.308,6.3112,6.3109,6.3153,6.3158,6.3167,6.3244,6.3258,6.3298,6.3231,6.3439,6.3444,6.3449,6.3485,6.3495,6.3503,0,0,0,0,0,6.2868,6.2937,6.2934,6.2952,6.3047,6.3117,6.3129,6.314,6.3115,6.3149,6.3169,6.3157,6.3285,6.3252,6.3267,6.3309,6.3436,6.3442,6.3448,6.3481,6.3493,6.3503,0,0,0,0,0,0,6.2888,6.2944,6.2941,6.3029,6.3069,6.3114,6.3157,6.3152,6.3197,6.3192,6.3201,6.3211,6.3284,6.3304,6.3266,6.3392,6.3357,6.3366,6.3376,6.3388,6.3396,6.3389,6.3236,0,0,0,0,0,6.2904,6.2961,6.3004,6.3078,6.3099,6.3125,6.3155,6.3161,6.3201,6.3217,6.3243,6.3279,6.3327,6.3359,6.3405,6.3489,6.3496,6.3525,6.3534,6.3541,6.3548,6.3592,6.3604,6.3471,6.3471,6.3471,0,0,6.2935,6.2973,6.3007,6.3083,6.3115,6.3169,6.3139,6.3197,6.3237,6.3224,6.3295,6.3316,6.3357,6.3435,6.347,6.3453,6.3587,6.3549,6.3554,6.3557,6.3599,6.3612,6.3623,6.3475,6.3474,6.3474,0,0,6.302,6.3056,6.312,6.3153,6.3203,6.322,6.3236,6.3282,6.3296,6.3369,6.336,6.3405,6.3489,6.3518,6.3544,6.364,6.3629,6.3655,6.37,6.3743,6.3753,6.3762,6.3795,6.3807,6.3662,6.3662,6.3663,0,6.3051,6.3137,6.3153,6.3214,6.3246,6.3242,6.3305,6.3335,6.3395,6.3416,6.3397,6.3502,6.3529,6.3613,6.3637,6.3659,6.3674,6.3649,6.3751,6.3761,6.3769,6.38,6.3813,6.3665,6.3665,6.3665,6.3664,0,6.3172,6.3232,6.3278,6.3341,6.3378,6.344,6.3461,6.3497,6.3499,6.3517,6.3589,6.3622,6.3674,6.3695,6.3696,6.3779,6.3767,6.375,6.3714,6.3784,6.3813,6.3826,6.3669,6.3668,6.3667,6.3667,0,0,6.3271,6.3344,6.336,6.3388,6.3443,6.3487,6.3547,6.3602,6.3631,6.3673,6.3721,6.3793,6.3778,6.3807,6.3811,6.3849,6.3921,6.3827,6.3828,6.3842,6.4011,6.4023,6.4036,6.3915,6.3918,6.3919,6.4007,0,6.336,6.3471,6.3487,6.3583,6.3636,6.3633,6.3685,6.3722,6.374,6.3785,6.3803,6.3853,6.383,6.3848,6.3885,6.3905,6.3955,6.3899,6.3956,6.3958,6.3945,6.4052,6.4064,6.4145,6.4019,6.4021,6.4022,0,6.3478,6.3528,6.363,6.3677,6.37,6.3747,6.3798,6.3843,6.3883,6.3894,6.3927,6.3927,6.3986,6.3949,6.4028,6.399,6.4014,6.4027,6.4031,6.4035,6.3993,6.4057,6.4172,6.4183,6.4041,6.4039,6.4038,0,6.3538,6.363,6.3703,6.3727,6.3784,6.3817,6.3841,6.3881,6.3912,6.3956,6.3976,6.4024,6.405,6.4086,6.4098,6.4071,6.4175,6.414,6.4183,6.4182,6.4203,6.4201,6.4322,6.4222,6.4222,6.4222,6.4222,0,6.3635,6.3697,6.3731,6.3775,6.3844,6.386,6.3926,6.3949,6.3984,6.403,6.4028,6.4071,6.4085,6.4129,6.4138,6.4201,6.4213,6.422,6.4221,6.422,6.4218,6.4234,6.4228,6.4225,6.4224,6.4224,6.4223,0,6.3712,6.3738,6.3817,6.3866,6.388,6.3928,6.3967,6.4009,6.4027,6.4085,6.4099,6.4127,6.4178,6.4195,6.4256,6.4262,6.4335,6.4332,6.4322,6.4322,6.4362,6.4358,6.4496,6.4514,6.4404,6.4405,6.4406,0,6.3771,6.382,6.3875,6.3908,6.3935,6.3987,6.4021,6.4038,6.4072,6.4122,6.4156,6.4209,6.4251,6.4333,6.4356,6.4402,6.4399,6.4445,6.4406,6.4402,6.4397,6.4394,6.4398,6.4451,6.4452,6.4453,6.4454,0,6.3873,6.3883,6.3934,6.3989,6.403,6.4073,6.4114,6.414,6.4162,6.42,6.4255,6.4288,6.4352,6.4403,6.445,6.4471,6.4465,6.4466,6.4478,6.4475,6.4467,6.447,6.434,6.4462,6.4461,6.4461,6.446,6.446,6.3941,6.3984,6.403,6.4086,6.412,6.4158,6.42,6.4224,6.4272,6.4328,6.4334,6.4392,6.443,6.4494,6.4517,6.4561,6.4547,6.4565,6.4569,6.4572,6.4575,6.4462,6.4569,6.4569,6.4569,6.4569,6.4569,0,6.4041,6.4071,6.4123,6.4183,6.4226,6.4221,6.4266,6.4301,6.4354,6.4392,6.4435,6.4496,6.4546,6.4573,6.4621,6.4651,6.4649,6.4662,6.4659,6.4664,6.4585,6.4569,6.4663,6.4663,6.4663,6.4663,6.4663,6.4663,6.4098,6.417,6.4186,6.4273,6.4301,6.4362,6.4388,6.4422,6.4452,6.4523,6.4565,6.4584,6.4617,6.4667,6.4711,6.4718,6.4734,6.4749,6.4754,6.4679,6.4669,6.466,6.4645,6.4753,6.4753,6.4828,6.4829,6.483]}]]